| time (UTC) | temp C | wind direction | speed KPH | gust KPH | rain 1hr cm | rain 24hr cm | rain mn cm | humidity % | barometer mb |
| 20260906022440 | 6 | 300 | 9.7 | 20.9 | 0.00 | 0.00 | 0.00 | 100 | |
| 20260906020439 | 6 | 319 | 8.0 | 14.5 | 0.00 | 0.00 | 0.00 | 100 | |
| 20260906014438 | 7 | 336 | 3.2 | 16.1 | 0.00 | 0.00 | 0.00 | 100 | |
| 20260906012438 | 7 | 307 | 17.7 | 22.5 | 0.00 | 0.00 | 0.00 | 100 | |
| 20260906010436 | 7 | 348 | 4.8 | 16.1 | 0.00 | 0.00 | 0.00 | 100 | |
| 20260906004434 | 7 | 2 | 4.8 | 19.3 | 0.00 | 0.00 | 0.00 | 100 | |
| 20260906002433 | 7 | 354 | 4.8 | 22.5 | 0.00 | 0.00 | 0.00 | 100 | |
| 20260906000433 | 7 | 313 | 4.8 | 12.9 | 0.00 | 0.00 | 0.00 | 100 | |
| 20260905234431 | 7 | 316 | 4.8 | 22.5 | 0.00 | 0.00 | 0.00 | 100 | |
| 20260905232430 | 7 | 1 | 6.4 | 17.7 | 0.00 | 0.00 | 0.00 | 100 | |
| 20260905230429 | 7 | 327 | 8.0 | 20.9 | 0.00 | 0.00 | 0.00 | 100 | |
| 20260905224428 | 7 | 330 | 14.5 | 32.2 | 0.00 | 0.00 | 0.00 | 100 | |
| 20260905222426 | 7 | 291 | 17.7 | 40.2 | 0.00 | 0.00 | 0.00 | 100 | |
| 20260905220425 | 7 | 293 | 17.7 | 38.6 | 0.00 | 0.00 | 0.00 | 100 | |
| 20260905214424 | 8 | 306 | 20.9 | 35.4 | 0.00 | 0.00 | 0.00 | 100 | |
| 20260905212423 | 8 | 302 | 20.9 | 32.2 | 0.00 | 0.00 | 0.00 | 100 | |
| 20260905210422 | 8 | 334 | 8.0 | 27.4 | 0.00 | 0.00 | 0.00 | 100 | |
| 20260905204421 | 7 | 316 | 14.5 | 29.0 | 0.00 | 0.00 | 0.00 | 100 | |
| 20260905202420 | 8 | 329 | 8.0 | 33.8 | 0.00 | 0.00 | 0.00 | 100 | |
| 20260905200419 | 8 | 310 | 16.1 | 35.4 | 0.00 | 0.00 | 0.00 | 100 | |
| 20260905194417 | 8 | 302 | 25.7 | 29.0 | 0.00 | 0.00 | 0.00 | 100 | |
| 20260905192416 | 8 | 291 | 16.1 | 29.0 | 0.00 | 0.00 | 0.00 | 100 | |
| 20260905190415 | 8 | 316 | 22.5 | 27.4 | 0.00 | 0.00 | 0.00 | 100 | |
| 20260905184414 | 7 | 313 | 11.3 | 22.5 | 0.00 | 0.00 | 0.00 | 100 | |
| 20260905182413 | 7 | 337 | 11.3 | 27.4 | 0.00 | 0.00 | 0.00 | 100 | |
| 20260905180412 | 7 | 305 | 16.1 | 25.7 | 0.00 | 0.00 | 0.00 | 100 | |
| 20260905174411 | 8 | 275 | 17.7 | 32.2 | 0.00 | 0.00 | 0.00 | 100 | |
| 20260905172409 | 8 | 323 | 8.0 | 27.4 | 0.00 | 0.00 | 0.00 | 100 | |
| 20260905170408 | 8 | 310 | 17.7 | 27.4 | 0.00 | 0.00 | 0.00 | 100 | |
| 20260905164407 | 9 | 293 | 14.5 | 30.6 | 0.00 | 0.00 | 0.00 | 100 | |
| 20260905162406 | 8 | 324 | 17.7 | 32.2 | 0.00 | 0.00 | 0.00 | 100 | |
| 20260905160405 | 8 | 313 | 12.9 | 25.7 | 0.00 | 0.00 | 0.00 | 100 | |
| 20260905154404 | 7 | 310 | 19.3 | 27.4 | 0.00 | 0.00 | 0.00 | 100 | |
| 20260905152403 | 7 | 309 | 14.5 | 37.0 | 0.00 | 0.00 | 0.00 | 100 | |
| 20260905144400 | 7 | 303 | 14.5 | 22.5 | 0.00 | 0.00 | 0.00 | 100 | |
| 20260905142359 | 8 | 300 | 9.7 | 14.5 | 0.00 | 0.00 | 0.00 | 100 | |
| 20260905140358 | 8 | 298 | 11.3 | 14.5 | 0.00 | 0.00 | 0.00 | 100 | |
| 20260905134358 | 8 | 307 | 6.4 | 16.1 | 0.00 | 0.00 | 0.00 | 100 | |
| 20260905132356 | 8 | 306 | 1.6 | 12.9 | 0.00 | 0.00 | 0.00 | 100 | |
| 20260905130355 | 9 | 296 | 9.7 | 17.7 | 0.00 | 0.00 | 0.00 | 100 | |
| 20260905124353 | 9 | 324 | 3.2 | 11.3 | 0.00 | 0.00 | 0.00 | 100 | |
| 20260905122353 | 10 | 2 | 6.4 | 19.3 | 0.00 | 0.00 | 0.00 | 100 | |
| 20260905120351 | 9 | 300 | 8.0 | 19.3 | 0.00 | 0.00 | 0.00 | 100 | |
| 20260905114350 | 9 | 293 | 12.9 | 25.7 | 0.00 | 0.00 | 0.00 | 100 | |
| 20260905112349 | 9 | 313 | 12.9 | 30.6 | 0.00 | 0.00 | 0.00 | 100 | |
| 20260905110348 | 11 | 347 | 8.0 | 22.5 | 0.00 | 0.00 | 0.00 | 100 | |
| 20260905104347 | 10 | 28 | 6.4 | 25.7 | 0.00 | 0.00 | 0.00 | 100 | |
| 20260905102346 | 9 | 296 | 20.9 | 30.6 | 0.00 | 0.00 | 0.00 | 100 | |
| 20260905100344 | 9 | 299 | 24.1 | 37.0 | 0.00 | 0.00 | 0.00 | 100 | |
| 20260905094343 | 9 | 326 | 29.0 | 40.2 | 0.00 | 0.00 | 0.00 | 100 | |
| 20260905092342 | 9 | 331 | 14.5 | 33.8 | 0.00 | 0.00 | 0.00 | 100 | |
| 20260905090341 | 8 | 289 | 20.9 | 32.2 | 0.00 | 0.00 | 0.00 | 100 | |
| 20260905084340 | 8 | 326 | 22.5 | 33.8 | 0.00 | 0.00 | 0.00 | 100 | |
| 20260905082339 | 7 | 309 | 4.8 | 9.7 | 0.00 | 0.00 | 0.00 | 100 | |
| 20260905080338 | 7 | 270 | 0.0 | 0.0 | 0.00 | 0.00 | 0.00 | 100 | |
| 20260905074337 | 7 | 295 | 0.0 | 4.8 | 0.00 | 0.00 | 0.00 | 100 | |
| 20260905072335 | 8 | 322 | 0.0 | 11.3 | 0.00 | 0.00 | 0.00 | 100 | |
| 20260905070334 | 8 | 324 | 4.8 | 6.4 | 0.00 | 0.00 | 0.00 | 100 | |
| 20260905064333 | 9 | 344 | 4.8 | 14.5 | 0.00 | 0.00 | 0.00 | 100 | |
| 20260905062332 | 10 | 333 | 0.0 | 6.4 | 0.00 | 0.00 | 0.00 | 100 | |
| 20260905060331 | 10 | 347 | 1.6 | 24.1 | 0.00 | 0.00 | 0.00 | 100 | |
| 20260905054330 | 10 | 5 | 6.4 | 17.7 | 0.00 | 0.00 | 0.00 | 100 | |
| 20260905052328 | 11 | 322 | 11.3 | 17.7 | 0.00 | 0.00 | 0.00 | 100 | |
| 20260905050327 | 11 | 271 | 8.0 | 14.5 | 0.00 | 0.00 | 0.00 | 100 | |
| 20260905044330 | 11 | 302 | 11.3 | 19.3 | 0.00 | 0.00 | 0.00 | 100 | |
| 20260905042325 | 11 | 288 | 22.5 | 22.5 | 0.00 | 0.00 | 0.00 | 100 | |
| 20260905040324 | 11 | 336 | 0.0 | 9.7 | 0.00 | 0.00 | 0.00 | 100 | |
| 20260905034323 | 11 | 0 | 0.0 | 11.3 | 0.00 | 0.00 | 0.00 | 100 | |
| 20260905032322 | 12 | 302 | 9.7 | 12.9 | 0.00 | 0.00 | 0.00 | 100 | |
| 20260905030321 | 12 | 274 | 4.8 | 14.5 | 0.00 | 0.00 | 0.00 | 100 | |
| 20260905024319 | 12 | 299 | 8.0 | 12.9 | 0.00 | 0.00 | 0.00 | 100 |